Hourly Weather Roundup
Issued by NWS Central Illinois

Home | Current Version | Previous Version | Text Only | Print | Product List | Glossary On
Versions: 1 2 3 4 5 6 7 8 9 10 11 12 13 14 15 16 17 18 19 20 21 22 23 24 25 26 27 28 29 30 31 32 33 34 35 36 37 38 39 40 41 42 43 44 45 46 47 48 49 50
000
NZUS43 KILX 290610
HWRILX

AREA WEATHER ROUNDUP
NATIONAL WEATHER SERVICE, LINCOLN IL
1200 AM CST THU JAN 29 2015


CITY           SKY/WX    TMP DP  RH WIND       PRES   REMARKS
BLOOMINGTON    PTCLDY    36  30  79 S24       29.78F WCI  24
6HR MIN TEMP:  34; 6HR MAX TEMP:  36; 6HR PCP: TRACE;

CHAMPAIGN      CLOUDY    37  27  67 S16       29.85F WCI  28
6HR MIN TEMP:  34; 6HR MAX TEMP:  37; 6HR PCP: TRACE;

DECATUR        MOCLDY    39  29  67 S21G29    29.82F WCI  29
6HR MIN TEMP:  36; 6HR MAX TEMP:  39; 6HR PCP: TRACE;

FLORA          CLOUDY    39  30  70 S9        29.92F WCI  33
6HR MIN TEMP:  37; 6HR MAX TEMP:  39;

GALESBURG      MOCLDY    37  33  84 S9        29.69F WCI  31
JACKSONVILLE   CLOUDY    43  35  72 S14G20    29.75F
6HR MIN TEMP:  43; 6HR MAX TEMP:  44;

LACON          PTCLDY    38  31  74 S14G23    29.72F WCI  30
6HR MIN TEMP:  35; 6HR MAX TEMP:  38;

LAWRENCEVILLE  MOCLDY    39  27  62 S13       29.97F WCI  31
6HR MIN TEMP:  33; 6HR MAX TEMP:  39;

LITCHFIELD     MOCLDY    39  31  73 S17       29.81F WCI  30
$$


CITY           SKY/WX    TMP DP  RH WIND       PRES   REMARKS
LINCOLN        PTCLDY    39  32  75 S16       29.78F WCI  31
6HR MIN TEMP:  36; 6HR MAX TEMP:  39;

MACOMB         CLOUDY    38  34  84 S17       29.72F WCI  29
MATTOON        CLOUDY    37  27  67 S17       29.86F WCI  27
6HR MIN TEMP:  36; 6HR MAX TEMP:  38; 6HR PCP: TRACE;

MT CARMEL AP   MOCLDY    41  27  56 S10       29.96F WCI  35
OLNEY-NOBLE AP CLOUDY    41  30  65 S7G17     29.93F
PARIS          CLOUDY    36  27  69 SE15G22   29.91F WCI  27
6HR MIN TEMP:  34; 6HR MAX TEMP:  37;

PEORIA         MOCLDY    39  32  76 S18       29.74F WCI  30
6HR MIN TEMP:  38; 6HR MAX TEMP:  39; 6HR PCP: TRACE;

PONTIAC        MOCLDY    37  31  79 S23G30    29.77F WCI  26
RANTOUL        DRIZZLE   36  29  76 S15       29.84F WCI  27
6HR MIN TEMP:  35; 6HR MAX TEMP:  36;

ROBINSON       CLOUDY    40  26  56 S13       29.96F WCI  32
6HR MIN TEMP:  35; 6HR MAX TEMP:  40;

SPRINGFIELD    MOCLDY    41  32  70 S20       29.78F WCI  32
6HR MIN TEMP:  39; 6HR MAX TEMP:  42; 6HR PCP:  0.01;

TAYLORVILLE    MOCLDY    39  32  75 S17G25    29.81F WCI  30
$$

...REGIONAL REPORTS...


CITY           SKY/WX    TMP DP  RH WIND       PRES   REMARKS
CHICAGO O`HARE CLOUDY    33  26  75 S17       29.80F WCI  22
KANKAKEE       CLOUDY    36  28  72 SE16G26   29.83F WCI  26
MOLINE         PTCLDY    39  31  72 S9        29.68F WCI  33
MOUNT VERNON   MOCLDY    45  34  65 S12       29.91F
PITTSFIELD     CLOUDY    45  36  70 S12       29.73F
QUINCY         CLOUDY    46  35  65 SW16      29.70F
ROCKFORD       CLOUDY    34  27  75 S15       29.77F WCI  24
$$


CITY           SKY/WX    TMP DP  RH WIND       PRES   REMARKS
BURLINGTON     MOCLDY    42  34  73 S15       29.66F WCI  34
CEDAR RAPIDS   CLEAR     31  30  96 NE8       29.68S WCI  23
DES MOINES     CLOUDY    38  33  82 N28G36    29.78R WCI  26
KIRKSVILLE     CLEAR     51  38  60 W15G23    29.71R
OTTUMWA        CLEAR     28  27  96 NW7       29.67R WCI  21
ST LOUIS       CLOUDY    52  36  54 S16G23    29.80F
$$


CITY           SKY/WX    TMP DP  RH WIND       PRES   REMARKS
TERRE HAUTE    CLOUDY    38  23  55 S15       29.95F WCI  29
EVANSVILLE     CLOUDY    44  26  49 S13       30.00F
INDIANAPOLIS   CLOUDY    32  18  56 SE12      29.99F WCI  23
LAFAYETTE      CLOUDY    35  19  52 S8        29.92F WCI  29
MADISON        CLOUDY    32  25  75 S5        29.77F WCI  27
MILWAUKEE      LGT RAIN  33  23  66 S10       29.81F WCI  25
$$




USA.gov is the U.S. government's official web portal to all federal, state and local government web resources and services.